Location: Unspecified
(0.0000°N, 0.0000°E)
Time: 23:32:48
(UTC+00:00)

S-56A Canister/Altair - Pass Details

Date: 06 October 2020
Orbit: 633 x 2499 km, 38.9° (Epoch: 28 October)

Event Time Altitude Azimuth Distance (km) Brightness Sun altitude
Rises 08:36:49 0° 228° (SW) 3,938 10.9 42.0°
Reaches altitude 10° 08:39:09 10° 228° (SW) 3,178 10.5 42.5°
Maximum altitude 08:47:20 89° 141° (SE) 1,635 10.0 44.6°
Drops below altitude 10° 08:59:55 10° 48° (NE) 4,696 12.1 47.7°
Sets 09:04:06 0° 49° (NE) 5,895 12.4 48.7°
